Time,TemperatureF,DewpointF,PressureIn,WindDirection,WindDirectionDegrees,WindSpeedMPH,WindSpeedGustMPH,Humidity,HourlyPrecipIn,Conditions,Clouds,dailyrainin,SoftwareType,DateUTC
2013-08-01 00:01:00,65.0,61.7,30.03,East,96,0.0,0.0,89,0.00,,,0.00,WeatherCatV1.15B25,2013-08-01 04:01:00,
2013-08-01 00:06:00,64.9,61.6,30.03,East,96,0.0,0.0,89,0.00,,,0.00,WeatherCatV1.15B25,2013-08-01 04:06:00,
2013-08-01 00:11:00,64.7,61.7,30.03,East,96,0.0,0.0,90,0.00,,,0.00,WeatherCatV1.15B25,2013-08-01 04:11:00,
2013-08-01 00:16:00,64.7,61.7,30.03,East,101,0.0,0.0,90,0.00,,,0.00,WeatherCatV1.15B25,2013-08-01 04:16:00,
2013-08-01 00:21:00,64.6,61.6,30.03,West,267,0.0,0.0,90,0.00,,,0.00,WeatherCatV1.15B25,2013-08-01 04:21:00,
2013-08-01 00:26:00,64.7,61.7,30.03,West,267,0.0,1.0,90,0.00,,,0.00,WeatherCatV1.15B25,2013-08-01 04:26:00,
2013-08-01 00:31:00,64.7,61.7,30.03,West,268,0.0,3.0,90,0.00,,,0.00,WeatherCatV1.15B25,2013-08-01 04:31:00,
2013-08-01 00:36:00,64.6,61.9,30.03,WNW,282,1.0,1.0,91,0.00,,,0.00,WeatherCatV1.15B25,2013-08-01 04:36:00,
2013-08-01 00:41:00,64.6,61.9,30.03,WNW,282,0.0,0.0,91,0.00,,,0.00,WeatherCatV1.15B25,2013-08-01 04:41:00,
2013-08-01 00:46:00,64.6,61.9,30.02,WNW,282,0.0,0.0,91,0.00,,,0.00,WeatherCatV1.15B25,2013-08-01 04:46:00,
2013-08-01 00:51:00,64.7,62.0,30.02,West,281,0.0,0.0,91,0.00,,,0.00,WeatherCatV1.15B25,2013-08-01 04:51:00,
2013-08-01 00:56:00,64.7,62.0,30.02,West,281,0.0,0.0,91,0.00,,,0.00,WeatherCatV1.15B25,2013-08-01 04:56:00,
2013-08-01 01:01:00,64.6,61.9,30.02,WNW,282,0.0,0.0,91,0.00,,,0.00,WeatherCatV1.15B25,2013-08-01 05:01:00,
2013-08-01 01:06:00,64.5,61.8,30.02,WNW,282,0.0,0.0,91,0.00,,,0.00,WeatherCatV1.15B25,2013-08-01 05:06:00,
2013-08-01 01:11:00,64.4,61.7,30.02,WNW,282,0.0,0.0,91,0.00,,,0.00,WeatherCatV1.15B25,2013-08-01 05:11:00,
2013-08-01 01:16:00,64.3,61.9,30.02,West,281,0.0,0.0,92,0.00,,,0.00,WeatherCatV1.15B25,2013-08-01 05:16:00,
2013-08-01 01:21:00,64.3,61.9,30.02,WSW,254,0.0,0.0,92,0.00,,,0.00,WeatherCatV1.15B25,2013-08-01 05:21:00,
2013-08-01 01:26:00,64.3,61.9,30.01,WSW,254,0.0,0.0,92,0.00,,,0.00,WeatherCatV1.15B25,2013-08-01 05:26:00,
2013-08-01 01:31:00,64.3,61.9,30.01,West,260,0.0,0.0,92,0.00,,,0.00,WeatherCatV1.15B25,2013-08-01 05:31:00,
2013-08-01 01:36:00,64.2,61.8,30.01,West,260,0.0,0.0,92,0.00,,,0.00,WeatherCatV1.15B25,2013-08-01 05:36:00,
2013-08-01 01:41:00,64.2,61.8,30.01,West,260,0.0,0.0,92,0.00,,,0.00,WeatherCatV1.15B25,2013-08-01 05:41:00,
2013-08-01 01:46:00,64.1,61.7,30.01,West,260,0.0,0.0,92,0.00,,,0.00,WeatherCatV1.15B25,2013-08-01 05:46:00,
2013-08-01 01:51:00,64.1,61.7,30.01,West,260,0.0,0.0,92,0.00,,,0.00,WeatherCatV1.15B25,2013-08-01 05:51:00,
2013-08-01 01:56:00,64.0,61.9,30.00,West,260,0.0,0.0,93,0.00,,,0.00,WeatherCatV1.15B25,2013-08-01 05:56:00,
2013-08-01 02:01:00,64.0,61.9,30.00,West,260,0.0,0.0,93,0.00,,,0.00,WeatherCatV1.15B25,2013-08-01 06:01:00,
2013-08-01 02:06:00,64.0,61.9,30.00,West,260,0.0,0.0,93,0.00,,,0.00,WeatherCatV1.15B25,2013-08-01 06:06:00,
2013-08-01 02:11:00,64.0,61.9,30.00,West,260,0.0,0.0,93,0.00,,,0.00,WeatherCatV1.15B25,2013-08-01 06:11:00,
2013-08-01 02:16:00,64.0,61.9,30.00,West,260,0.0,0.0,93,0.00,,,0.00,WeatherCatV1.15B25,2013-08-01 06:16:00,
2013-08-01 02:21:00,64.0,61.9,30.00,West,260,0.0,0.0,93,0.00,,,0.00,WeatherCatV1.15B25,2013-08-01 06:21:00,
2013-08-01 02:26:00,64.1,62.0,30.00,West,260,0.0,0.0,93,0.00,,,0.00,WeatherCatV1.15B25,2013-08-01 06:26:00,
2013-08-01 02:31:00,64.1,62.0,30.00,West,260,0.0,0.0,93,0.00,,,0.00,WeatherCatV1.15B25,2013-08-01 06:31:00,
2013-08-01 02:36:00,64.3,62.2,30.00,West,261,0.0,0.0,93,0.00,,,0.00,WeatherCatV1.15B25,2013-08-01 06:36:00,
2013-08-01 02:41:00,64.3,62.2,29.99,West,260,0.0,0.0,93,0.00,,,0.00,WeatherCatV1.15B25,2013-08-01 06:41:00,
2013-08-01 02:46:00,64.4,62.3,29.99,West,261,0.0,1.0,93,0.00,,,0.00,WeatherCatV1.15B25,2013-08-01 06:46:00,
2013-08-01 02:51:00,64.4,62.3,29.99,West,261,0.0,0.0,93,0.00,,,0.00,WeatherCatV1.15B25,2013-08-01 06:51:00,
2013-08-01 02:56:00,64.4,62.3,29.99,West,261,0.0,1.0,93,0.00,,,0.00,WeatherCatV1.15B25,2013-08-01 06:56:00,
2013-08-01 03:01:00,64.4,62.3,29.99,West,261,0.0,0.0,93,0.00,,,0.00,WeatherCatV1.15B25,2013-08-01 07:01:00,
2013-08-01 03:06:00,64.4,62.3,29.98,West,261,0.0,0.0,93,0.00,,,0.00,WeatherCatV1.15B25,2013-08-01 07:06:00,
2013-08-01 03:11:00,64.4,62.3,29.98,West,263,0.0,0.0,93,0.00,,,0.00,WeatherCatV1.15B25,2013-08-01 07:11:00,
2013-08-01 03:16:00,64.3,62.2,29.98,West,263,0.0,0.0,93,0.00,,,0.00,WeatherCatV1.15B25,2013-08-01 07:16:00,
2013-08-01 03:21:00,64.3,62.2,29.98,West,263,0.0,0.0,93,0.00,,,0.00,WeatherCatV1.15B25,2013-08-01 07:21:00,
2013-08-01 03:26:00,64.1,62.3,29.97,West,263,0.0,0.0,94,0.00,,,0.00,WeatherCatV1.15B25,2013-08-01 07:26:00,
2013-08-01 03:31:00,64.1,62.3,29.97,West,263,0.0,0.0,94,0.00,,,0.00,WeatherCatV1.15B25,2013-08-01 07:31:00,
2013-08-01 03:36:00,64.0,62.2,29.97,West,263,0.0,0.0,94,0.00,,,0.00,WeatherCatV1.15B25,2013-08-01 07:36:00,
2013-08-01 03:41:00,64.0,62.2,29.97,West,263,0.0,0.0,94,0.00,,,0.00,WeatherCatV1.15B25,2013-08-01 07:41:00,
2013-08-01 03:46:00,63.9,62.1,29.96,West,265,0.0,0.0,94,0.00,,,0.00,WeatherCatV1.15B25,2013-08-01 07:46:00,
2013-08-01 03:51:00,63.9,62.1,29.96,WSW,242,0.0,1.0,94,0.00,,,0.00,WeatherCatV1.15B25,2013-08-01 07:51:00,
2013-08-01 03:56:00,63.9,62.4,29.96,WSW,242,0.0,0.0,95,0.00,,,0.00,WeatherCatV1.15B25,2013-08-01 07:56:00,
2013-08-01 04:01:00,64.0,62.5,29.96,West,269,0.0,1.0,95,0.00,,,0.00,WeatherCatV1.15B25,2013-08-01 08:01:00,
2013-08-01 04:06:00,63.9,62.1,29.96,West,268,0.0,1.0,94,0.00,,,0.00,WeatherCatV1.15B25,2013-08-01 08:06:00,
2013-08-01 04:11:00,63.9,62.4,29.96,West,268,0.0,0.0,95,0.00,,,0.00,WeatherCatV1.15B25,2013-08-01 08:11:00,
2013-08-01 04:16:00,63.9,62.4,29.96,West,268,0.0,0.0,95,0.00,,,0.00,WeatherCatV1.15B25,2013-08-01 08:16:00,
2013-08-01 04:21:00,63.9,62.4,29.96,West,268,0.0,0.0,95,0.00,,,0.00,WeatherCatV1.15B25,2013-08-01 08:21:00,
2013-08-01 04:26:00,63.9,62.4,29.96,West,268,1.0,1.0,95,0.00,,,0.00,WeatherCatV1.15B25,2013-08-01 08:26:00,
2013-08-01 04:31:00,63.9,62.4,29.95,West,268,0.0,0.0,95,0.00,,,0.00,WeatherCatV1.15B25,2013-08-01 08:31:00,
2013-08-01 04:36:00,64.0,62.5,29.95,West,268,0.0,0.0,95,0.00,,,0.00,WeatherCatV1.15B25,2013-08-01 08:36:00,
2013-08-01 04:41:00,64.1,62.6,29.95,West,268,0.0,0.0,95,0.00,,,0.00,WeatherCatV1.15B25,2013-08-01 08:41:00,
2013-08-01 04:46:00,64.0,62.5,29.96,West,265,0.0,0.0,95,0.00,,,0.00,WeatherCatV1.15B25,2013-08-01 08:46:00,
2013-08-01 04:51:00,64.0,62.5,29.96,West,265,0.0,0.0,95,0.00,,,0.00,WeatherCatV1.15B25,2013-08-01 08:51:00,
2013-08-01 04:57:00,64.0,62.5,29.96,West,260,0.0,2.0,95,0.00,,,0.00,WeatherCatV1.15B25,2013-08-01 08:57:00,
2013-08-01 05:02:00,63.9,62.4,29.96,West,260,0.0,0.0,95,0.00,,,0.00,WeatherCatV1.15B25,2013-08-01 09:02:00,
2013-08-01 05:07:00,63.9,62.4,29.96,West,262,0.0,0.0,95,0.00,,,0.00,WeatherCatV1.15B25,2013-08-01 09:07:00,
2013-08-01 05:12:00,63.9,62.7,29.95,West,262,0.0,0.0,96,0.00,,,0.00,WeatherCatV1.15B25,2013-08-01 09:12:00,
2013-08-01 05:17:00,64.0,62.8,29.96,West,261,0.0,0.0,96,0.00,,,0.00,WeatherCatV1.15B25,2013-08-01 09:17:00,
2013-08-01 05:22:00,64.1,62.9,29.96,West,262,0.0,0.0,96,0.00,,,0.00,WeatherCatV1.15B25,2013-08-01 09:22:00,
2013-08-01 05:27:00,64.1,62.9,29.96,West,263,0.0,0.0,96,0.00,,,0.00,WeatherCatV1.15B25,2013-08-01 09:27:00,
2013-08-01 05:32:00,64.1,62.9,29.96,WSW,242,0.0,0.0,96,0.00,,,0.00,WeatherCatV1.15B25,2013-08-01 09:32:00,
2013-08-01 05:37:00,64.1,62.9,29.96,WSW,249,0.0,1.0,96,0.00,,,0.00,WeatherCatV1.15B25,2013-08-01 09:37:00,
2013-08-01 05:42:00,64.1,62.9,29.96,WSW,249,0.0,0.0,96,0.00,,,0.00,WeatherCatV1.15B25,2013-08-01 09:42:00,
2013-08-01 05:47:00,64.1,62.9,29.96,WSW,247,0.0,0.0,96,0.00,,,0.00,WeatherCatV1.15B25,2013-08-01 09:47:00,
2013-08-01 05:52:00,64.2,63.0,29.96,WSW,248,0.0,1.0,96,0.00,,,0.00,WeatherCatV1.15B25,2013-08-01 09:52:00,
2013-08-01 05:57:00,64.3,63.1,29.96,WSW,248,0.0,0.0,96,0.00,,,0.00,WeatherCatV1.15B25,2013-08-01 09:57:00,
2013-08-01 06:02:00,64.4,63.5,29.96,WSW,248,0.0,0.0,97,0.00,,,0.00,WeatherCatV1.15B25,2013-08-01 10:02:00,
2013-08-01 06:08:00,64.5,63.6,29.96,WSW,248,0.0,0.0,97,0.00,,,0.00,WeatherCatV1.15B25,2013-08-01 10:08:00,
2013-08-01 06:13:00,64.6,63.4,29.96,WSW,248,0.0,0.0,96,0.00,,,0.00,WeatherCatV1.15B25,2013-08-01 10:13:00,
2013-08-01 06:18:00,64.7,63.5,29.96,WSW,248,0.0,0.0,96,0.00,,,0.00,WeatherCatV1.15B25,2013-08-01 10:18:00,
2013-08-01 06:23:00,64.7,63.5,29.96,WSW,252,0.0,1.0,96,0.00,,,0.00,WeatherCatV1.15B25,2013-08-01 10:23:00,
2013-08-01 06:28:00,64.8,63.6,29.96,WSW,252,0.0,0.0,96,0.00,,,0.00,WeatherCatV1.15B25,2013-08-01 10:28:00,
2013-08-01 06:33:00,64.8,63.6,29.96,WSW,252,0.0,0.0,96,0.00,,,0.00,WeatherCatV1.15B25,2013-08-01 10:33:00,
2013-08-01 06:38:00,64.9,63.7,29.95,WSW,252,0.0,0.0,96,0.00,,,0.00,WeatherCatV1.15B25,2013-08-01 10:38:00,
2013-08-01 06:42:00,65.0,63.8,29.96,WSW,252,0.0,0.0,96,0.00,,,0.00,WeatherCatV1.15B25,2013-08-01 10:42:00,
2013-08-01 06:47:00,65.0,63.8,29.95,WSW,252,0.0,0.0,96,0.00,,,0.00,WeatherCatV1.15B25,2013-08-01 10:47:00,
2013-08-01 06:52:00,65.1,63.9,29.95,WSW,252,0.0,0.0,96,0.00,,,0.00,WeatherCatV1.15B25,2013-08-01 10:52:00,
2013-08-01 06:57:00,65.1,63.9,29.95,WSW,252,0.0,0.0,96,0.00,,,0.00,WeatherCatV1.15B25,2013-08-01 10:57:00,
2013-08-01 07:02:00,65.1,63.9,29.95,WSW,252,0.0,0.0,96,0.00,,,0.00,WeatherCatV1.15B25,2013-08-01 11:02:00,
2013-08-01 07:07:00,65.1,63.9,29.95,WSW,252,0.0,0.0,96,0.00,,,0.00,WeatherCatV1.15B25,2013-08-01 11:07:00,
2013-08-01 07:12:00,65.2,64.0,29.95,WSW,240,0.0,0.0,96,0.00,,,0.00,WeatherCatV1.15B25,2013-08-01 11:12:00,
2013-08-01 07:17:00,65.4,64.2,29.95,WSW,240,0.0,0.0,96,0.00,,,0.00,WeatherCatV1.15B25,2013-08-01 11:17:00,
2013-08-01 07:22:00,65.7,64.5,29.95,NNW,327,0.0,1.0,96,0.00,,,0.00,WeatherCatV1.15B25,2013-08-01 11:22:00,
2013-08-01 07:27:00,66.1,64.9,29.95,SE,124,0.0,0.0,96,0.00,,,0.00,WeatherCatV1.15B25,2013-08-01 11:27:00,
2013-08-01 07:32:00,66.3,64.8,29.95,SE,124,0.0,0.0,95,0.00,,,0.00,WeatherCatV1.15B25,2013-08-01 11:32:00,
2013-08-01 07:38:00,66.4,64.6,29.95,NW,304,0.0,0.0,94,0.00,,,0.00,WeatherCatV1.15B25,2013-08-01 11:38:00,
2013-08-01 07:43:00,66.4,64.6,29.95,NW,305,0.0,0.0,94,0.00,,,0.00,WeatherCatV1.15B25,2013-08-01 11:43:00,
2013-08-01 07:48:00,66.3,64.5,29.95,NW,304,0.0,1.0,94,0.00,,,0.00,WeatherCatV1.15B25,2013-08-01 11:48:00,
2013-08-01 07:53:00,66.3,64.5,29.95,WSW,241,0.0,1.0,94,0.00,,,0.00,WeatherCatV1.15B25,2013-08-01 11:53:00,
2013-08-01 07:58:00,66.4,64.6,29.95,WSW,241,0.0,0.0,94,0.00,,,0.00,WeatherCatV1.15B25,2013-08-01 11:58:00,
2013-08-01 08:03:00,66.3,64.5,29.95,WSW,242,0.0,0.0,94,0.00,,,0.00,WeatherCatV1.15B25,2013-08-01 12:03:00,
2013-08-01 08:08:00,66.3,64.5,29.95,ENE,63,0.0,0.0,94,0.00,,,0.00,WeatherCatV1.15B25,2013-08-01 12:08:00,
2013-08-01 08:13:00,66.3,64.5,29.95,East,92,0.0,0.0,94,0.00,,,0.00,WeatherCatV1.15B25,2013-08-01 12:13:00,
2013-08-01 08:18:00,66.2,64.1,29.95,East,92,0.0,0.0,93,0.00,,,0.00,WeatherCatV1.15B25,2013-08-01 12:18:00,
2013-08-01 08:23:00,66.2,64.1,29.95,East,93,0.0,0.0,93,0.00,,,0.00,WeatherCatV1.15B25,2013-08-01 12:23:00,
2013-08-01 08:28:00,66.3,64.5,29.95,East,95,0.0,0.0,94,0.00,,,0.00,WeatherCatV1.15B25,2013-08-01 12:28:00,
2013-08-01 08:33:00,66.7,64.9,29.95,ESE,111,0.0,0.0,94,0.00,,,0.00,WeatherCatV1.15B25,2013-08-01 12:33:00,
2013-08-01 08:38:00,67.1,64.7,29.94,ESE,111,0.0,1.0,92,0.00,,,0.00,WeatherCatV1.15B25,2013-08-01 12:38:00,
2013-08-01 08:43:00,67.5,64.8,29.94,ESE,111,0.0,0.0,91,0.00,,,0.00,WeatherCatV1.15B25,2013-08-01 12:43:00,
2013-08-01 08:48:00,67.7,65.0,29.94,ESE,111,0.0,0.0,91,0.00,,,0.00,WeatherCatV1.15B25,2013-08-01 12:48:00,
2013-08-01 08:53:00,67.8,64.8,29.94,ESE,121,0.0,0.0,90,0.00,,,0.00,WeatherCatV1.15B25,2013-08-01 12:53:00,
2013-08-01 08:58:00,67.9,64.9,29.93,SE,127,0.0,1.0,90,0.00,,,0.00,WeatherCatV1.15B25,2013-08-01 12:58:00,
2013-08-01 09:03:00,68.4,65.7,29.93,ESE,104,0.0,1.0,91,0.00,,,0.00,WeatherCatV1.15B25,2013-08-01 13:03:00,
2013-08-01 09:08:00,69.1,65.4,29.93,East,100,0.0,2.0,88,0.00,,,0.00,WeatherCatV1.15B25,2013-08-01 13:08:00,
2013-08-01 09:13:00,69.5,65.5,29.93,ESE,107,0.0,0.0,87,0.00,,,0.00,WeatherCatV1.15B25,2013-08-01 13:13:00,
2013-08-01 09:18:00,69.7,64.6,29.93,ESE,107,0.0,0.0,84,0.00,,,0.00,WeatherCatV1.15B25,2013-08-01 13:18:00,
2013-08-01 09:23:00,69.6,64.9,29.93,ESE,107,0.0,0.0,85,0.00,,,0.00,WeatherCatV1.15B25,2013-08-01 13:23:00,
2013-08-01 09:28:00,69.4,64.7,29.92,ESE,113,0.0,0.0,85,0.00,,,0.00,WeatherCatV1.15B25,2013-08-01 13:28:00,
2013-08-01 09:33:00,69.2,64.2,29.92,ESE,106,0.0,1.0,84,0.00,,,0.00,WeatherCatV1.15B25,2013-08-01 13:33:00,
2013-08-01 09:38:00,69.1,64.4,29.92,ESE,109,0.0,0.0,85,0.00,,,0.00,WeatherCatV1.15B25,2013-08-01 13:38:00,
2013-08-01 09:43:00,69.3,64.6,29.93,ESE,121,0.0,0.0,85,0.00,,,0.00,WeatherCatV1.15B25,2013-08-01 13:43:00,
2013-08-01 09:48:00,69.5,64.8,29.92,ESE,109,0.0,3.0,85,0.00,,,0.00,WeatherCatV1.15B25,2013-08-01 13:48:00,
2013-08-01 09:53:00,69.7,65.3,29.92,ESE,112,0.0,2.0,86,0.00,,,0.00,WeatherCatV1.15B25,2013-08-01 13:53:00,
2013-08-01 09:58:00,69.8,65.4,29.92,ESE,114,0.0,1.0,86,0.00,,,0.00,WeatherCatV1.15B25,2013-08-01 13:58:00,
2013-08-01 10:03:00,69.7,64.6,29.92,ESE,121,0.0,0.0,84,0.00,,,0.00,WeatherCatV1.15B25,2013-08-01 14:03:00,
2013-08-01 10:08:00,69.4,64.7,29.92,SE,133,0.0,1.0,85,0.00,,,0.00,WeatherCatV1.15B25,2013-08-01 14:08:00,
2013-08-01 10:13:00,69.0,64.0,29.92,SE,133,0.0,0.0,84,0.00,,,0.00,WeatherCatV1.15B25,2013-08-01 14:13:00,
2013-08-01 10:18:00,68.8,64.1,29.92,ESE,105,0.0,0.0,85,0.00,,,0.00,WeatherCatV1.15B25,2013-08-01 14:18:00,
2013-08-01 10:23:00,68.6,64.2,29.92,SE,128,0.0,0.0,86,0.00,,,0.00,WeatherCatV1.15B25,2013-08-01 14:23:00,
2013-08-01 10:28:00,68.5,64.5,29.92,ESE,103,0.0,2.0,87,0.00,,,0.00,WeatherCatV1.15B25,2013-08-01 14:28:00,
2013-08-01 10:33:00,68.3,64.6,29.92,ESE,123,0.0,1.0,88,0.00,,,0.00,WeatherCatV1.15B25,2013-08-01 14:33:00,
2013-08-01 10:38:00,68.0,64.6,29.92,ESE,115,0.0,0.0,89,0.00,,,0.00,WeatherCatV1.15B25,2013-08-01 14:38:00,
2013-08-01 10:43:00,67.9,64.9,29.92,WSW,254,0.0,1.0,90,0.00,,,0.00,WeatherCatV1.15B25,2013-08-01 14:43:00,
2013-08-01 10:48:00,67.6,64.6,29.92,ESE,104,0.0,1.0,90,0.00,,,0.00,WeatherCatV1.15B25,2013-08-01 14:48:00,
2013-08-01 10:52:00,67.3,64.3,29.92,ESE,105,0.0,1.0,90,0.00,,,0.00,WeatherCatV1.15B25,2013-08-01 14:52:00,
2013-08-01 10:57:00,67.2,64.8,29.91,ESE,105,0.0,0.0,92,0.00,,,0.00,WeatherCatV1.15B25,2013-08-01 14:57:00,
2013-08-01 11:02:00,67.2,65.1,29.91,ESE,105,0.0,0.0,93,0.00,,,0.00,WeatherCatV1.15B25,2013-08-01 15:02:00,
2013-08-01 11:07:00,67.1,64.7,29.91,ESE,104,0.0,0.0,92,0.00,,,0.00,WeatherCatV1.15B25,2013-08-01 15:07:00,
2013-08-01 11:12:00,66.9,64.5,29.92,South,169,0.0,1.0,92,0.00,,,0.00,WeatherCatV1.15B25,2013-08-01 15:12:00,
2013-08-01 11:17:00,66.7,64.6,29.92,SE,134,0.0,1.0,93,0.00,,,0.00,WeatherCatV1.15B25,2013-08-01 15:17:00,
2013-08-01 11:22:00,66.4,64.6,29.92,SE,134,0.0,0.0,94,0.00,,,0.00,WeatherCatV1.15B25,2013-08-01 15:22:00,
2013-08-01 11:27:00,66.3,64.8,29.92,SE,133,0.0,1.0,95,0.00,,,0.00,WeatherCatV1.15B25,2013-08-01 15:27:00,
2013-08-01 11:32:00,66.1,64.9,29.92,SE,134,0.0,1.0,96,0.00,,,0.00,WeatherCatV1.15B25,2013-08-01 15:32:00,
2013-08-01 11:37:00,66.0,64.8,29.91,SE,134,0.0,1.0,96,0.00,,,0.01,WeatherCatV1.15B25,2013-08-01 15:37:00,
2013-08-01 11:42:00,65.8,64.6,29.91,SE,132,0.0,0.0,96,0.11,,,0.02,WeatherCatV1.15B25,2013-08-01 15:42:00,
2013-08-01 11:47:00,65.5,64.3,29.91,SE,132,0.0,0.0,96,0.48,,,0.05,WeatherCatV1.15B25,2013-08-01 15:47:00,
2013-08-01 11:52:00,65.2,64.3,29.91,NW,321,0.0,3.0,97,0.26,,,0.08,WeatherCatV1.15B25,2013-08-01 15:52:00,
2013-08-01 11:57:00,64.8,63.9,29.91,ESE,111,0.0,1.0,97,0.11,,,0.08,WeatherCatV1.15B25,2013-08-01 15:57:00,
2013-08-01 12:02:00,64.4,63.5,29.91,North,355,0.0,2.0,97,0.09,,,0.09,WeatherCatV1.15B25,2013-08-01 16:02:00,
2013-08-01 12:07:00,64.2,63.3,29.91,ESE,102,0.0,1.0,97,0.11,,,0.10,WeatherCatV1.15B25,2013-08-01 16:07:00,
2013-08-01 12:12:00,64.2,63.6,29.91,SE,137,1.0,1.0,98,0.07,,,0.10,WeatherCatV1.15B25,2013-08-01 16:12:00,
2013-08-01 12:17:00,64.3,63.7,29.91,East,101,0.0,1.0,98,0.07,,,0.11,WeatherCatV1.15B25,2013-08-01 16:17:00,
2013-08-01 12:22:00,64.3,63.7,29.90,ESE,107,0.0,0.0,98,0.06,,,0.11,WeatherCatV1.15B25,2013-08-01 16:22:00,
2013-08-01 12:27:00,64.3,63.7,29.90,West,272,0.0,0.0,98,0.04,,,0.11,WeatherCatV1.15B25,2013-08-01 16:27:00,
2013-08-01 12:32:00,64.3,63.7,29.90,ESE,113,0.0,2.0,98,0.00,,,0.11,WeatherCatV1.15B25,2013-08-01 16:32:00,
2013-08-01 12:37:00,64.0,63.4,29.90,East,94,0.0,1.0,98,0.00,,,0.11,WeatherCatV1.15B25,2013-08-01 16:37:00,
2013-08-01 12:42:00,63.8,63.2,29.90,WNW,286,0.0,1.0,98,0.00,,,0.11,WeatherCatV1.15B25,2013-08-01 16:42:00,
2013-08-01 12:47:00,63.8,63.2,29.90,WNW,286,0.0,2.0,98,0.00,,,0.11,WeatherCatV1.15B25,2013-08-01 16:47:00,
2013-08-01 12:52:00,63.8,63.5,29.90,WSW,242,0.0,1.0,99,0.00,,,0.11,WeatherCatV1.15B25,2013-08-01 16:52:00,
2013-08-01 12:57:00,63.9,63.6,29.90,SSE,150,0.0,9.0,99,0.00,,,0.11,WeatherCatV1.15B25,2013-08-01 16:57:00,
2013-08-01 13:02:00,63.9,63.6,29.90,NNW,327,0.0,0.0,99,0.00,,,0.11,WeatherCatV1.15B25,2013-08-01 17:02:00,
2013-08-01 13:07:00,63.9,63.6,29.90,SE,138,0.0,1.0,99,0.00,,,0.11,WeatherCatV1.15B25,2013-08-01 17:07:00,
2013-08-01 13:12:00,63.9,63.6,29.90,WSW,255,0.0,2.0,99,0.00,,,0.11,WeatherCatV1.15B25,2013-08-01 17:12:00,
2013-08-01 13:17:00,63.8,63.5,29.90,WNW,303,0.0,2.0,99,0.00,,,0.12,WeatherCatV1.15B25,2013-08-01 17:17:00,
2013-08-01 13:22:00,63.7,63.4,29.90,West,273,0.0,1.0,99,0.00,,,0.12,WeatherCatV1.15B25,2013-08-01 17:22:00,
2013-08-01 13:27:00,63.6,63.3,29.90,NNW,338,0.0,1.0,99,0.00,,,0.12,WeatherCatV1.15B25,2013-08-01 17:27:00,
2013-08-01 13:32:00,63.5,63.2,29.89,ESE,113,0.0,0.0,99,0.00,,,0.12,WeatherCatV1.15B25,2013-08-01 17:32:00,
2013-08-01 13:37:00,63.4,63.1,29.89,ESE,113,0.0,0.0,99,0.18,,,0.14,WeatherCatV1.15B25,2013-08-01 17:37:00,
2013-08-01 13:42:00,63.3,63.0,29.90,ESE,113,0.0,0.0,99,0.60,,,0.18,WeatherCatV1.15B25,2013-08-01 17:42:00,
2013-08-01 13:47:00,63.0,62.7,29.90,ENE,58,0.0,2.0,99,0.34,,,0.22,WeatherCatV1.15B25,2013-08-01 17:47:00,
2013-08-01 13:52:00,62.7,62.4,29.90,East,94,0.0,1.0,99,0.20,,,0.24,WeatherCatV1.15B25,2013-08-01 17:52:00,
2013-08-01 13:57:00,62.5,62.2,29.90,ESE,113,0.0,0.0,99,0.14,,,0.25,WeatherCatV1.15B25,2013-08-01 17:57:00,
2013-08-01 14:02:00,62.6,62.3,29.89,ESE,116,0.0,0.0,99,0.25,,,0.27,WeatherCatV1.15B25,2013-08-01 18:02:00,
2013-08-01 14:07:00,62.6,62.3,29.89,ESE,117,0.0,2.0,99,0.16,,,0.28,WeatherCatV1.15B25,2013-08-01 18:07:00,
2013-08-01 14:12:00,62.6,62.3,29.90,ESE,115,0.0,0.0,99,0.13,,,0.29,WeatherCatV1.15B25,2013-08-01 18:12:00,
2013-08-01 14:17:00,62.7,62.4,29.89,ESE,121,0.0,0.0,99,0.08,,,0.30,WeatherCatV1.15B25,2013-08-01 18:17:00,
2013-08-01 14:22:00,62.7,62.4,29.89,SSE,155,0.0,0.0,99,0.08,,,0.30,WeatherCatV1.15B25,2013-08-01 18:22:00,
2013-08-01 14:27:00,62.9,62.6,29.90,West,259,0.0,0.0,99,0.06,,,0.31,WeatherCatV1.15B25,2013-08-01 18:27:00,
2013-08-01 14:32:00,63.0,62.7,29.89,ESE,108,0.0,0.0,99,0.06,,,0.31,WeatherCatV1.15B25,2013-08-01 18:32:00,
2013-08-01 14:37:00,63.0,63.0,29.89,East,91,1.0,3.0,100,0.05,,,0.31,WeatherCatV1.15B25,2013-08-01 18:37:00,
2013-08-01 14:42:00,63.0,63.0,29.88,East,87,0.0,1.0,100,0.04,,,0.32,WeatherCatV1.15B25,2013-08-01 18:42:00,
2013-08-01 14:47:00,63.0,62.7,29.89,ENE,76,0.0,4.0,99,0.04,,,0.32,WeatherCatV1.15B25,2013-08-01 18:47:00,
2013-08-01 14:52:00,63.0,62.7,29.88,ESE,113,0.0,0.0,99,0.04,,,0.32,WeatherCatV1.15B25,2013-08-01 18:52:00,
2013-08-01 14:57:00,63.0,63.0,29.88,ESE,111,0.0,0.0,100,0.00,,,0.32,WeatherCatV1.15B25,2013-08-01 18:57:00,
2013-08-01 15:02:00,63.0,62.7,29.88,WSW,254,0.0,0.0,99,0.00,,,0.33,WeatherCatV1.15B25,2013-08-01 19:02:00,
2013-08-01 15:07:00,62.9,62.6,29.88,West,271,0.0,1.0,99,0.00,,,0.33,WeatherCatV1.15B25,2013-08-01 19:07:00,
2013-08-01 15:12:00,62.8,62.5,29.88,SSE,167,0.0,1.0,99,0.00,,,0.33,WeatherCatV1.15B25,2013-08-01 19:12:00,
2013-08-01 15:17:00,62.9,62.9,29.88,ESE,110,0.0,0.0,100,0.00,,,0.33,WeatherCatV1.15B25,2013-08-01 19:17:00,
2013-08-01 15:22:00,63.1,63.1,29.88,West,281,0.0,0.0,100,0.00,,,0.33,WeatherCatV1.15B25,2013-08-01 19:22:00,
2013-08-01 15:27:00,63.2,63.2,29.88,ESE,121,0.0,0.0,100,0.00,,,0.33,WeatherCatV1.15B25,2013-08-01 19:27:00,
2013-08-01 15:32:00,63.1,63.1,29.87,South,170,0.0,0.0,100,0.00,,,0.33,WeatherCatV1.15B25,2013-08-01 19:32:00,
2013-08-01 15:37:00,63.2,63.2,29.87,ESE,104,0.0,1.0,100,0.00,,,0.33,WeatherCatV1.15B25,2013-08-01 19:37:00,
2013-08-01 15:42:00,63.2,63.2,29.88,SE,126,0.0,1.0,100,0.00,,,0.33,WeatherCatV1.15B25,2013-08-01 19:42:00,
2013-08-01 15:47:00,63.2,63.2,29.88,East,95,0.0,0.0,100,0.00,,,0.33,WeatherCatV1.15B25,2013-08-01 19:47:00,
2013-08-01 15:52:00,63.1,63.1,29.88,East,94,0.0,1.0,100,0.00,,,0.33,WeatherCatV1.15B25,2013-08-01 19:52:00,
2013-08-01 15:57:00,63.1,63.1,29.87,SE,126,0.0,1.0,100,0.00,,,0.33,WeatherCatV1.15B25,2013-08-01 19:57:00,
2013-08-01 16:02:00,63.1,63.1,29.87,ESE,122,0.0,2.0,100,0.00,,,0.33,WeatherCatV1.15B25,2013-08-01 20:02:00,
2013-08-01 16:07:00,63.1,63.1,29.87,NNW,345,0.0,2.0,100,0.00,,,0.33,WeatherCatV1.15B25,2013-08-01 20:07:00,
2013-08-01 16:12:00,63.1,63.1,29.87,ESE,103,0.0,2.0,100,0.00,,,0.34,WeatherCatV1.15B25,2013-08-01 20:12:00,
2013-08-01 16:17:00,63.1,63.1,29.86,ESE,121,0.0,1.0,100,0.00,,,0.34,WeatherCatV1.15B25,2013-08-01 20:17:00,
2013-08-01 16:22:00,63.1,63.1,29.87,ENE,74,0.0,3.0,100,0.00,,,0.34,WeatherCatV1.15B25,2013-08-01 20:22:00,
2013-08-01 16:27:00,63.1,63.1,29.86,East,80,0.0,0.0,100,0.00,,,0.34,WeatherCatV1.15B25,2013-08-01 20:27:00,
2013-08-01 16:32:00,63.0,63.0,29.86,SE,126,0.0,1.0,100,0.00,,,0.34,WeatherCatV1.15B25,2013-08-01 20:32:00,
2013-08-01 16:37:00,63.0,63.0,29.86,ESE,111,0.0,0.0,100,0.00,,,0.34,WeatherCatV1.15B25,2013-08-01 20:37:00,
2013-08-01 16:42:00,63.0,63.0,29.86,NNE,22,0.0,2.0,100,0.00,,,0.34,WeatherCatV1.15B25,2013-08-01 20:42:00,
2013-08-01 16:46:00,62.9,62.9,29.86,NE,53,0.0,1.0,100,0.00,,,0.34,WeatherCatV1.15B25,2013-08-01 20:46:00,
2013-08-01 16:52:00,63.0,63.0,29.85,ESE,102,0.0,4.0,100,0.00,,,0.34,WeatherCatV1.15B25,2013-08-01 20:52:00,
2013-08-01 16:57:00,62.9,62.9,29.85,ESE,116,0.0,0.0,100,0.00,,,0.34,WeatherCatV1.15B25,2013-08-01 20:57:00,
2013-08-01 17:02:00,62.9,62.9,29.85,East,88,1.0,1.0,100,0.00,,,0.34,WeatherCatV1.15B25,2013-08-01 21:02:00,
2013-08-01 17:07:00,62.8,62.8,29.85,East,92,0.0,0.0,100,0.00,,,0.34,WeatherCatV1.15B25,2013-08-01 21:07:00,
2013-08-01 17:12:00,62.7,62.7,29.86,East,88,0.0,2.0,100,0.00,,,0.34,WeatherCatV1.15B25,2013-08-01 21:12:00,
2013-08-01 17:17:00,62.8,62.8,29.86,ESE,102,0.0,0.0,100,0.00,,,0.34,WeatherCatV1.15B25,2013-08-01 21:17:00,
2013-08-01 17:22:00,62.7,62.7,29.86,East,80,0.0,1.0,100,0.00,,,0.34,WeatherCatV1.15B25,2013-08-01 21:22:00,
2013-08-01 17:27:00,62.7,62.7,29.85,East,98,1.0,3.0,100,0.00,,,0.34,WeatherCatV1.15B25,2013-08-01 21:27:00,
2013-08-01 17:32:00,62.8,62.8,29.85,SE,124,0.0,3.0,100,0.00,,,0.34,WeatherCatV1.15B25,2013-08-01 21:32:00,
2013-08-01 17:37:00,62.8,62.8,29.86,East,98,0.0,2.0,100,0.00,,,0.34,WeatherCatV1.15B25,2013-08-01 21:37:00,
2013-08-01 17:42:00,62.9,62.9,29.85,SE,127,0.0,0.0,100,0.00,,,0.34,WeatherCatV1.15B25,2013-08-01 21:42:00,
2013-08-01 17:47:00,62.8,62.8,29.85,East,84,0.0,0.0,100,0.00,,,0.34,WeatherCatV1.15B25,2013-08-01 21:47:00,
2013-08-01 17:52:00,62.9,62.9,29.85,ESE,122,0.0,7.0,100,0.00,,,0.34,WeatherCatV1.15B25,2013-08-01 21:52:00,
2013-08-01 17:57:00,63.0,63.0,29.85,ESE,106,0.0,0.0,100,0.00,,,0.34,WeatherCatV1.15B25,2013-08-01 21:57:00,
2013-08-01 18:02:00,63.0,63.0,29.85,ESE,103,0.0,0.0,100,0.00,,,0.34,WeatherCatV1.15B25,2013-08-01 22:02:00,
2013-08-01 18:07:00,63.1,63.1,29.85,ESE,116,0.0,0.0,100,0.00,,,0.34,WeatherCatV1.15B25,2013-08-01 22:07:00,
2013-08-01 18:12:00,63.1,63.1,29.85,North,0,0.0,1.0,100,0.00,,,0.34,WeatherCatV1.15B25,2013-08-01 22:12:00,
2013-08-01 18:17:00,63.0,63.0,29.85,East,92,0.0,1.0,100,0.00,,,0.34,WeatherCatV1.15B25,2013-08-01 22:17:00,
2013-08-01 18:22:00,62.9,62.9,29.85,ESE,117,0.0,1.0,100,0.00,,,0.34,WeatherCatV1.15B25,2013-08-01 22:22:00,
2013-08-01 18:27:00,62.8,62.5,29.85,SE,132,0.0,1.0,99,0.00,,,0.34,WeatherCatV1.15B25,2013-08-01 22:27:00,
2013-08-01 18:32:00,62.8,62.8,29.85,East,98,0.0,1.0,100,0.00,,,0.34,WeatherCatV1.15B25,2013-08-01 22:32:00,
2013-08-01 18:37:00,62.8,62.8,29.85,SE,128,0.0,3.0,100,0.00,,,0.34,WeatherCatV1.15B25,2013-08-01 22:37:00,
2013-08-01 18:42:00,62.8,62.8,29.84,SE,144,0.0,2.0,100,0.00,,,0.35,WeatherCatV1.15B25,2013-08-01 22:42:00,
2013-08-01 18:47:00,62.7,62.7,29.84,SE,143,0.0,1.0,100,0.00,,,0.35,WeatherCatV1.15B25,2013-08-01 22:47:00,
2013-08-01 18:52:00,62.6,62.6,29.85,ESE,102,0.0,2.0,100,0.05,,,0.36,WeatherCatV1.15B25,2013-08-01 22:52:00,
2013-08-01 18:57:00,62.6,62.6,29.84,ESE,102,0.0,1.0,100,0.05,,,0.36,WeatherCatV1.15B25,2013-08-01 22:57:00,
2013-08-01 19:02:00,62.6,62.6,29.85,ESE,115,1.0,1.0,100,0.05,,,0.36,WeatherCatV1.15B25,2013-08-01 23:02:00,
2013-08-01 19:07:00,62.6,62.6,29.85,SSE,154,0.0,5.0,100,0.04,,,0.36,WeatherCatV1.15B25,2013-08-01 23:07:00,
2013-08-01 19:12:00,62.6,62.6,29.85,ESE,117,0.0,1.0,100,0.00,,,0.36,WeatherCatV1.15B25,2013-08-01 23:12:00,
2013-08-01 19:17:00,62.6,62.6,29.85,East,83,0.0,1.0,100,0.00,,,0.36,WeatherCatV1.15B25,2013-08-01 23:17:00,
2013-08-01 19:22:00,62.7,62.7,29.85,ENE,65,0.0,0.0,100,0.00,,,0.36,WeatherCatV1.15B25,2013-08-01 23:22:00,
2013-08-01 19:27:00,62.8,62.8,29.85,East,98,0.0,2.0,100,0.00,,,0.36,WeatherCatV1.15B25,2013-08-01 23:27:00,
2013-08-01 19:32:00,62.8,62.8,29.85,ESE,105,0.0,0.0,100,0.00,,,0.36,WeatherCatV1.15B25,2013-08-01 23:32:00,
2013-08-01 19:37:00,62.9,62.9,29.86,ESE,102,0.0,0.0,100,0.00,,,0.36,WeatherCatV1.15B25,2013-08-01 23:37:00,
2013-08-01 19:42:00,62.9,62.9,29.86,ESE,102,0.0,0.0,100,0.00,,,0.36,WeatherCatV1.15B25,2013-08-01 23:42:00,
2013-08-01 19:47:00,62.9,62.9,29.86,ESE,106,0.0,2.0,100,0.00,,,0.36,WeatherCatV1.15B25,2013-08-01 23:47:00,
2013-08-01 19:52:00,62.9,62.9,29.85,East,99,0.0,4.0,100,0.00,,,0.36,WeatherCatV1.15B25,2013-08-01 23:52:00,
2013-08-01 19:57:00,63.0,63.0,29.85,ESE,107,0.0,0.0,100,0.00,,,0.36,WeatherCatV1.15B25,2013-08-01 23:57:00,
2013-08-01 20:02:00,63.0,63.0,29.86,ESE,106,0.0,0.0,100,0.00,,,0.36,WeatherCatV1.15B25,2013-08-02 00:02:00,
2013-08-01 20:07:00,63.0,63.0,29.86,ESE,103,0.0,2.0,100,0.00,,,0.36,WeatherCatV1.15B25,2013-08-02 00:07:00,
2013-08-01 20:12:00,63.0,63.0,29.85,ESE,109,0.0,0.0,100,0.00,,,0.37,WeatherCatV1.15B25,2013-08-02 00:12:00,
2013-08-01 20:17:00,63.1,63.1,29.85,ESE,108,0.0,0.0,100,0.06,,,0.37,WeatherCatV1.15B25,2013-08-02 00:17:00,
2013-08-01 20:22:00,63.1,63.1,29.85,SE,142,0.0,0.0,100,0.06,,,0.38,WeatherCatV1.15B25,2013-08-02 00:22:00,
2013-08-01 20:28:00,63.2,63.2,29.86,ESE,115,1.0,1.0,100,0.06,,,0.38,WeatherCatV1.15B25,2013-08-02 00:28:00,
2013-08-01 20:33:00,63.3,63.3,29.86,ESE,115,0.0,1.0,100,0.04,,,0.38,WeatherCatV1.15B25,2013-08-02 00:33:00,
2013-08-01 20:38:00,63.3,63.3,29.85,ESE,109,0.0,2.0,100,0.00,,,0.38,WeatherCatV1.15B25,2013-08-02 00:38:00,
2013-08-01 20:43:00,63.3,63.3,29.86,ESE,114,0.0,0.0,100,0.00,,,0.38,WeatherCatV1.15B25,2013-08-02 00:43:00,
2013-08-01 20:48:00,63.4,63.4,29.86,ESE,112,0.0,1.0,100,0.00,,,0.38,WeatherCatV1.15B25,2013-08-02 00:48:00,
2013-08-01 20:53:00,63.4,63.4,29.85,East,83,0.0,0.0,100,0.00,,,0.38,WeatherCatV1.15B25,2013-08-02 00:53:00,
2013-08-01 20:58:00,63.4,63.4,29.85,ESE,121,0.0,0.0,100,0.00,,,0.38,WeatherCatV1.15B25,2013-08-02 00:58:00,
2013-08-01 21:03:00,63.5,63.5,29.85,ESE,105,0.0,0.0,100,0.00,,,0.38,WeatherCatV1.15B25,2013-08-02 01:03:00,
2013-08-01 21:08:00,63.5,63.5,29.85,ESE,105,0.0,0.0,100,0.00,,,0.38,WeatherCatV1.15B25,2013-08-02 01:08:00,
2013-08-01 21:12:00,63.5,63.5,29.85,ESE,105,0.0,0.0,100,0.00,,,0.38,WeatherCatV1.15B25,2013-08-02 01:12:00,
2013-08-01 21:18:00,63.6,63.6,29.85,ESE,105,0.0,1.0,100,0.00,,,0.38,WeatherCatV1.15B25,2013-08-02 01:18:00,
2013-08-01 21:23:00,63.6,63.6,29.84,ESE,105,0.0,1.0,100,0.00,,,0.38,WeatherCatV1.15B25,2013-08-02 01:23:00,
2013-08-01 21:28:00,63.6,63.6,29.84,ESE,111,0.0,1.0,100,0.00,,,0.38,WeatherCatV1.15B25,2013-08-02 01:28:00,
2013-08-01 21:33:00,63.7,63.7,29.84,East,81,0.0,0.0,100,0.00,,,0.38,WeatherCatV1.15B25,2013-08-02 01:33:00,
2013-08-01 21:38:00,63.7,63.7,29.84,ESE,121,0.0,1.0,100,0.00,,,0.38,WeatherCatV1.15B25,2013-08-02 01:38:00,
2013-08-01 21:43:00,63.7,63.7,29.84,ESE,121,0.0,2.0,100,0.00,,,0.38,WeatherCatV1.15B25,2013-08-02 01:43:00,
2013-08-01 21:48:00,63.8,63.8,29.84,ESE,113,0.0,2.0,100,0.00,,,0.38,WeatherCatV1.15B25,2013-08-02 01:48:00,
2013-08-01 21:53:00,63.9,63.9,29.84,ESE,113,0.0,0.0,100,0.00,,,0.38,WeatherCatV1.15B25,2013-08-02 01:53:00,
2013-08-01 21:58:00,63.9,63.9,29.84,ESE,102,0.0,2.0,100,0.00,,,0.38,WeatherCatV1.15B25,2013-08-02 01:58:00,
2013-08-01 22:03:00,64.0,64.0,29.84,SE,134,0.0,2.0,100,0.00,,,0.38,WeatherCatV1.15B25,2013-08-02 02:03:00,
2013-08-01 22:08:00,64.0,64.0,29.84,SE,134,0.0,0.0,100,0.00,,,0.38,WeatherCatV1.15B25,2013-08-02 02:08:00,
2013-08-01 22:13:00,64.0,64.0,29.84,ESE,121,0.0,0.0,100,0.00,,,0.38,WeatherCatV1.15B25,2013-08-02 02:13:00,
2013-08-01 22:18:00,64.0,64.0,29.84,ESE,121,0.0,0.0,100,0.00,,,0.38,WeatherCatV1.15B25,2013-08-02 02:18:00,
2013-08-01 22:23:00,64.0,64.0,29.84,ESE,122,0.0,1.0,100,0.00,,,0.38,WeatherCatV1.15B25,2013-08-02 02:23:00,
2013-08-01 22:28:00,64.0,64.0,29.84,ESE,122,0.0,0.0,100,0.00,,,0.38,WeatherCatV1.15B25,2013-08-02 02:28:00,
2013-08-01 22:33:00,64.1,64.1,29.84,ESE,122,0.0,0.0,100,0.00,,,0.38,WeatherCatV1.15B25,2013-08-02 02:33:00,
2013-08-01 22:38:00,64.1,64.1,29.84,ESE,122,0.0,0.0,100,0.00,,,0.38,WeatherCatV1.15B25,2013-08-02 02:38:00,
2013-08-01 22:43:00,64.1,64.1,29.84,ESE,122,0.0,0.0,100,0.00,,,0.38,WeatherCatV1.15B25,2013-08-02 02:43:00,
2013-08-01 22:48:00,64.1,64.1,29.84,ESE,122,0.0,0.0,100,0.00,,,0.38,WeatherCatV1.15B25,2013-08-02 02:48:00,
2013-08-01 22:53:00,64.1,64.1,29.84,ESE,122,0.0,0.0,100,0.00,,,0.38,WeatherCatV1.15B25,2013-08-02 02:53:00,
2013-08-01 22:58:00,64.2,64.2,29.83,ESE,122,0.0,0.0,100,0.00,,,0.38,WeatherCatV1.15B25,2013-08-02 02:58:00,
2013-08-01 23:03:00,64.2,64.2,29.83,ESE,122,0.0,0.0,100,0.00,,,0.38,WeatherCatV1.15B25,2013-08-02 03:03:00,
2013-08-01 23:08:00,64.3,64.3,29.83,ESE,122,0.0,0.0,100,0.00,,,0.38,WeatherCatV1.15B25,2013-08-02 03:08:00,
2013-08-01 23:13:00,64.3,64.3,29.83,ESE,122,0.0,0.0,100,0.00,,,0.38,WeatherCatV1.15B25,2013-08-02 03:13:00,
2013-08-01 23:18:00,64.3,64.3,29.83,ESE,122,0.0,0.0,100,0.00,,,0.38,WeatherCatV1.15B25,2013-08-02 03:18:00,
2013-08-01 23:23:00,64.3,64.3,29.83,ESE,122,0.0,0.0,100,0.00,,,0.38,WeatherCatV1.15B25,2013-08-02 03:23:00,
2013-08-01 23:28:00,64.3,64.3,29.83,ESE,122,0.0,0.0,100,0.00,,,0.38,WeatherCatV1.15B25,2013-08-02 03:28:00,
2013-08-01 23:33:00,64.3,64.3,29.84,ESE,122,0.0,0.0,100,0.00,,,0.38,WeatherCatV1.15B25,2013-08-02 03:33:00,
2013-08-01 23:38:00,64.3,64.3,29.84,ESE,122,0.0,0.0,100,0.00,,,0.38,WeatherCatV1.15B25,2013-08-02 03:38:00,
2013-08-01 23:43:00,64.3,64.3,29.84,ESE,122,0.0,0.0,100,0.00,,,0.38,WeatherCatV1.15B25,2013-08-02 03:43:00,
2013-08-01 23:48:00,64.3,64.3,29.84,ESE,122,0.0,0.0,100,0.00,,,0.38,WeatherCatV1.15B25,2013-08-02 03:48:00,
2013-08-01 23:53:00,64.3,64.3,29.84,ESE,122,0.0,0.0,100,0.00,,,0.38,WeatherCatV1.15B25,2013-08-02 03:53:00,
2013-08-01 23:58:00,64.3,64.3,29.84,ESE,122,0.0,0.0,100,0.00,,,0.39,WeatherCatV1.15B25,2013-08-02 03:58:00,